Location: Arrodets-la-Barthe
(43.0306°N, 0.2829°E)
Time: 13:03:38
(UTC+00:00)

YUBILEINY - Visible Passes

Search period start: 27 March 2023 00:00
Search period end: 06 April 2023 00:00
Orbit: 1477 x 1509 km, 82.5° (Epoch: 27 March)

Date Brightness Start Highest point End Pass type
(mag) Time Alt. Az. Time Alt. Az. Time Alt. Az.
27 Mar ? 01:24:12 10° NNW 01:28:00 20° NW 01:28:00 20° NW visible
27 Mar ? 22:36:32 10° N 22:42:59 41° NE 22:42:59 41° NE visible
28 Mar ? 00:33:34 10° NNW 00:38:54 34° NW 00:38:54 34° NW visible
28 Mar ? 21:47:34 10° N 21:53:54 26° ENE 21:53:54 26° ENE visible
28 Mar ? 23:43:33 10° NNW 23:49:48 51° NNW 23:49:48 51° NNW visible
29 Mar ? 01:43:28 10° NW 01:45:43 13° WNW 01:45:43 13° WNW visible
29 Mar ? 20:59:34 10° NNE 21:04:00 14° NE 21:04:49 14° ENE visible
29 Mar ? 22:53:55 10° N 23:00:44 54° NNE 23:00:44 54° NNE visible
30 Mar ? 00:51:47 10° NNW 00:56:38 25° WNW 00:56:38 25° WNW visible
30 Mar ? 22:04:38 10° N 22:11:39 38° NE 22:11:39 38° NE visible
31 Mar ? 00:01:23 10° NNW 00:07:34 42° NW 00:07:34 42° NW visible
31 Mar ? 21:15:52 10° NNE 21:22:24 22° ENE 21:22:35 22° ENE visible
31 Mar ? 23:11:29 10° N 23:18:30 62° NNW 23:18:30 62° NNW visible
01 Apr ? 01:10:33 10° NW 01:14:25 17° WNW 01:14:25 17° WNW visible
01 Apr ? 20:28:39 10° NNE 20:31:32 12° NE 20:33:32 11° ENE visible
01 Apr ? 22:21:57 10° N 22:29:27 54° NE 22:29:27 54° NE visible
02 Apr ? 00:19:26 10° NNW 00:25:22 31° WNW 00:25:22 31° WNW visible
02 Apr ? 21:32:47 10° N 21:40:24 33° ENE 21:40:24 33° ENE visible
02 Apr ? 23:29:13 10° NNW 23:36:19 53° NW 23:36:19 53° NW visible
03 Apr ? 20:44:15 10° NNE 20:50:04 19° ENE 20:51:23 18° ENE visible
03 Apr ? 22:39:27 10° N 22:47:17 72° NNE 22:47:17 72° NNE visible
04 Apr ? 00:37:55 10° NNW 00:43:12 21° WNW 00:43:12 21° WNW visible
04 Apr ? 21:50:01 10° N 21:58:16 49° ENE 21:58:16 49° ENE visible
04 Apr ? 23:47:11 10° NNW 23:54:11 38° WNW 23:54:11 38° WNW visible
05 Apr ? 21:01:00 10° N 21:08:20 28° ENE 21:09:15 28° ENE visible
05 Apr ? 22:57:07 10° NNW 23:05:10 67° WNW 23:05:10 67° WNW visible
